Aeroporto :
LOGIN :

Iscrizione | Disclaimer

   EN    FR    IT 

 










Sommario :    VFR   VFR Marginale   IFR   IFR Intensivo   IFR Molto Intensivo
Visibilità : 
Base nubi : 
>= 8 km
>= 3000ft
5 / 8 km
1000 / 3000 ft
1500m / 5 km
500 / 1000 ft
800 / 1500m
200 / 500 ft
< 800m
< 200 ft
Simboli :   Temporali  Nebbia  Neve Forte  Precipitazioni Forti  Vento > 20 kt
SIGMETs :   Varie  Temporali  Ghiacco  Turbolenza  Onda orograficha  Ceneri Vulcaniche






- Altitudine del aeroporto : 1187 ft


LIBV - Gioia del Colle Bari

ULTIMO METAR :
  • 161755Z 03003KT CAVOK 08/06 Q1027 RMK SKC VIS MIN 9999 WIND THR32 05004KT WIND THR14 04002KT BLU

METARs OBSOLETI :
  • 161655Z 02004KT CAVOK 09/07 Q1027 RMK SKC VIS MIN 9999 WIND THR32 04005KT WIND THR14 02004KT BLU
  • 161555Z 03006KT CAVOK 11/06 Q1026 RMK SKC VIS MIN 9999 WIND THR32 04006KT WIND THR14 02006KT BLU

TAF TAF LIBV
Valido dal 16 a 18 ore il 17 a 03 ore UTC


161700Z 1618/1703 VRB03KT CAVOK
BECMG 1619/1621 6000 NSC



MetMap, La meteo Aeronautica in un colpo d'occhio ! - Copyright ORBIFLY Dicembre 2007 - Disclaimer

ORBIFLY MET'MAP TEAM :

Programmazione e sviluppo : Alexandra Zaïnal
Concezione : Baudouin d'Aumeries
Aiuto per la programmazione : Marc-Olivier Méhu
Supporto tecnico e logistico : Manuel Goepfert
Aiuto per la traduzione : Arnaldo La Scala

Contatto : metmap@orbifly.com




FONTI E CREDITI :

   NOAA